ARCTIC WEATHER SATELLITE (60543 NORAD) Tracking and Keplerian Element Data

This shows tracking and keplerian element data for the satellite.

Feedback or suggestion? Click here.




ElementValue
Catalog60543
NameARCTIC WEATHER SATELLITE
Epoch Orbit795
Epoch Day283.19906638
Epoch Year2024
RAAN357.8154
Inclination97.7403
Eccentricity0.0003957
Argument of Perigee1.5781
Mean Anonmoly358.5449
Mean Motion14.91966484
Decay Rate4.507E-05
L11 60543U 24149CD 24283.19906638 .00004507 00000+0 45032-3 0 9991
L22 60543 97.7403 357.8154 0003957 1.5781 358.5449 14.91966484 7950



Live tracking and technical data element details for ARCTIC WEATHER SATELLITE (NORAD 60543). ARCTIC WEATHER SATELLITE can be tracked NOW for your location showing map with azimuth and elevation plus other details from your city location.







IsCatalogInMostPopularTable: catalog: 60543, numindb: 4
Update: records affected: 1



GetName: 60543 ARCTIC WEATHER SATELLITE

Hit Count: updated at: Tue, 03 Dec 2024 01:45:41 GMT